Location: Unspecified
(0.0000°N, 0.0000°E)
Time: 12:40:13
(UTC+00:00)

S-56A Canister/Altair - Pass Details

Date: 01 December 2023
Orbit: 640 x 2488 km, 38.9° (Epoch: 24 February)

Event Time Altitude Azimuth Distance (km) Brightness Sun altitude
Exits shadow 00:53:09 13° 220° (SW) 4,828 11.6 -63.2°
Maximum altitude 00:56:15 14° 207° (SSW) 4,780 11.6 -62.7°
Drops below altitude 10° 01:03:11 10° 178° (S) 5,110 11.9 -61.7°
Sets 01:10:14 0° 156° (SSE) 5,934 12.5 -60.6°
